Hourly Weather Kiszombor

Today, 27 October, Tuesday

Time Temperature Precipitation Wind Pressure Humidity
00:00 +13°C° 0 mm 3 mps 751 mmHg 81%
01:00 +12°C° 0 mm 3 mps 752 mmHg 82%
02:00 +12°C° 0 mm 3 mps 752 mmHg 82%
03:00 +12°C° 0 mm 3 mps 752 mmHg 82%
04:00 +12°C° 0 mm 3 mps 751 mmHg 83%
05:00 +11°C° 0 mm 3 mps 752 mmHg 82%
06:00 +11°C° 0 mm 3 mps 752 mmHg 82%
07:00 +11°C° 0 mm 3 mps 752 mmHg 81%
08:00 +13°C° 0 mm 3 mps 752 mmHg 74%
09:00 +15°C° 0 mm 4 mps 752 mmHg 68%
10:00 +17°C° 0 mm 5 mps 752 mmHg 61%
11:00 +19°C° 0 mm 4 mps 752 mmHg 58%
12:00 +20°C° 0 mm 4 mps 752 mmHg 55%
13:00 +21°C° 0 mm 4 mps 752 mmHg 52%
14:00 +20°C° 0 mm 3 mps 752 mmHg 54%
15:00 +19°C° 0 mm 3 mps 752 mmHg 57%
16:00 +19°C° 0 mm 2 mps 751 mmHg 59%
17:00 +18°C° 0 mm 2 mps 752 mmHg 62%
18:00 +18°C° 0 mm 1 mps 752 mmHg 65%
19:00 +16°C° 0 mm 1 mps 753 mmHg 68%
20:00 +16°C° 0 mm 1 mps 753 mmHg 70%
21:00 +16°C° 0 mm 1 mps 753 mmHg 71%
22:00 +15°C° 0 mm 1 mps 753 mmHg 73%
23:00 +15°C° 0 mm 1 mps 753 mmHg 74%

Tomorrow, 28 October, Wednesday

Time Temperature Precipitation Wind Pressure Humidity
00:00 +15°C° 0 mm 1 mps 754 mmHg 75%
01:00 +14°C° 0 mm 1 mps 754 mmHg 76%
02:00 +14°C° 0 mm 1 mps 754 mmHg 77%
03:00 +14°C° 0 mm 1 mps 754 mmHg 78%
04:00 +13°C° 0 mm 1 mps 754 mmHg 79%
05:00 +13°C° 0 mm 1 mps 754 mmHg 79%
06:00 +13°C° 0 mm 1 mps 755 mmHg 78%
07:00 +13°C° 0 mm 1 mps 755 mmHg 78%
08:00 +15°C° 0 mm 1 mps 755 mmHg 72%
09:00 +16°C° 0 mm 1 mps 756 mmHg 67%
10:00 +19°C° 0 mm 1 mps 756 mmHg 61%
11:00 +19°C° 0 mm 1 mps 756 mmHg 58%
12:00 +20°C° 0 mm 1 mps 756 mmHg 55%
13:00 +21°C° 0 mm 1 mps 756 mmHg 52%
14:00 +20°C° 0 mm 1 mps 756 mmHg 55%
15:00 +20°C° 0 mm 1 mps 756 mmHg 58%
16:00 +19°C° 0 mm 1 mps 756 mmHg 61%
17:00 +18°C° 0 mm 1 mps 756 mmHg 64%
18:00 +18°C° 0 mm 1 mps 756 mmHg 67%
19:00 +16°C° 0 mm 1 mps 756 mmHg 70%
20:00 +15°C° 0 mm 1 mps 756 mmHg 72%
21:00 +15°C° 0 mm 1 mps 756 mmHg 74%
22:00 +15°C° 0 mm 1 mps 756 mmHg 76%
23:00 +14°C° 0 mm 1 mps 756 mmHg 78%

Day after tomorrow, 29 October, Thursday

Time Temperature Precipitation Wind Pressure Humidity
00:00 +14°C° 0 mm 1 mps 757 mmHg 79%
01:00 +14°C° 0 mm 1 mps 757 mmHg 81%
02:00 +13°C° 0 mm 1 mps 757 mmHg 83%
03:00 +13°C° 0 mm 1 mps 757 mmHg 85%
04:00 +13°C° 0 mm 1 mps 757 mmHg 87%
05:00 +12°C° 0 mm 1 mps 757 mmHg 87%
06:00 +12°C° 0 mm 2 mps 757 mmHg 87%
07:00 +12°C° 0 mm 2 mps 757 mmHg 88%
08:00 +14°C° 0 mm 2 mps 757 mmHg 79%
09:00 +15°C° 0 mm 2 mps 757 mmHg 71%
10:00 +16°C° 0 mm 2 mps 757 mmHg 62%
11:00 +17°C° 0 mm 2 mps 757 mmHg 57%
12:00 +18°C° 0 mm 2 mps 757 mmHg 52%
13:00 +19°C° 0 mm 2 mps 757 mmHg 47%
14:00 +19°C° 0 mm 2 mps 757 mmHg 50%
15:00 +18°C° 0 mm 2 mps 757 mmHg 53%
16:00 +17°C° 0 mm 3 mps 756 mmHg 55%
17:00 +17°C° 0 mm 3 mps 757 mmHg 58%
18:00 +16°C° 0 mm 3 mps 757 mmHg 60%
19:00 +14°C° 0 mm 4 mps 758 mmHg 63%
20:00 +14°C° 0.1 mm 5 mps 758 mmHg 66%
21:00 +13°C° 0.1 mm 5 mps 758 mmHg 70%
22:00 +13°C° 0.1 mm 6 mps 759 mmHg 73%
23:00 +12°C° 0.4 mm 5 mps 759 mmHg 74%

30 October, Friday

Time Temperature Precipitation Wind Pressure Humidity
00:00 +12°C° 0.4 mm 4 mps 759 mmHg 75%
01:00 +12°C° 0.4 mm 3 mps 759 mmHg 76%
02:00 +11°C° 0 mm 4 mps 759 mmHg 75%
03:00 +10°C° 0 mm 5 mps 760 mmHg 74%
04:00 +9°C° 0 mm 5 mps 760 mmHg 73%
05:00 +8°C° 0 mm 5 mps 760 mmHg 72%
06:00 +8°C° 0 mm 5 mps 760 mmHg 72%
07:00 +8°C° 0 mm 5 mps 761 mmHg 72%
08:00 +9°C° 0 mm 5 mps 761 mmHg 66%
09:00 +10°C° 0 mm 5 mps 761 mmHg 61%
10:00 +12°C° 0 mm 5 mps 762 mmHg 56%
11:00 +12°C° 0 mm 5 mps 761 mmHg 53%
12:00 +13°C° 0 mm 4 mps 761 mmHg 50%
13:00 +14°C° 0 mm 3 mps 761 mmHg 47%
14:00 +13°C° 0 mm 3 mps 761 mmHg 47%
15:00 +13°C° 0 mm 3 mps 761 mmHg 48%
16:00 +12°C° 0 mm 3 mps 761 mmHg 49%
17:00 +11°C° 0 mm 3 mps 761 mmHg 53%
18:00 +12°C° 0 mm 2 mps 761 mmHg 57%
19:00 +10°C° 0 mm 2 mps 761 mmHg 61%
20:00 +10°C° 0.2 mm 2 mps 761 mmHg 66%
21:00 +10°C° 0.2 mm 2 mps 761 mmHg 71%
22:00 +10°C° 0.2 mm 2 mps 761 mmHg 77%
23:00 +10°C° 1.1 mm 2 mps 761 mmHg 81%

31 October, Saturday

Time Temperature Precipitation Wind Pressure Humidity
00:00 +10°C° 1.1 mm 3 mps 760 mmHg 85%
01:00 +10°C° 1.1 mm 4 mps 760 mmHg 89%
02:00 +10°C° 0.4 mm 4 mps 760 mmHg 88%
03:00 +9°C° 0.4 mm 5 mps 760 mmHg 88%
04:00 +10°C° 0.4 mm 5 mps 759 mmHg 88%
05:00 +10°C° 0.1 mm 5 mps 759 mmHg 87%
06:00 +10°C° 0.1 mm 5 mps 759 mmHg 87%
07:00 +10°C° 0.1 mm 5 mps 759 mmHg 87%
08:00 +12°C° 0.1 mm 5 mps 759 mmHg 84%
09:00 +12°C° 0.1 mm 5 mps 760 mmHg 80%
10:00 +12°C° 0.1 mm 5 mps 760 mmHg 77%
11:00 +12°C° 0 mm 5 mps 760 mmHg 71%
12:00 +12°C° 0 mm 5 mps 760 mmHg 66%
13:00 +13°C° 0 mm 4 mps 760 mmHg 60%
14:00 +12°C° 0 mm 4 mps 760 mmHg 61%
15:00 +12°C° 0 mm 3 mps 760 mmHg 62%
16:00 +11°C° 0 mm 3 mps 760 mmHg 63%
17:00 +11°C° 0 mm 3 mps 761 mmHg 67%
18:00 +10°C° 0 mm 3 mps 761 mmHg 70%
19:00 +9°C° 0 mm 3 mps 761 mmHg 74%
20:00 +9°C° 0 mm 3 mps 761 mmHg 75%
21:00 +8°C° 0 mm 3 mps 761 mmHg 76%
22:00 +8°C° 0 mm 3 mps 762 mmHg 77%
23:00 +7°C° 0 mm 3 mps 762 mmHg 78%

1 November, Sunday

Time Temperature Precipitation Wind Pressure Humidity
00:00 +7°C° 0 mm 3 mps 762 mmHg 78%
01:00 +5°C° 0 mm 3 mps 762 mmHg 79%
02:00 +5°C° 0 mm 3 mps 762 mmHg 81%
03:00 +5°C° 0 mm 3 mps 762 mmHg 82%
04:00 +4°C° 0 mm 3 mps 762 mmHg 84%
05:00 +4°C° 0 mm 3 mps 762 mmHg 84%
06:00 +5°C° 0 mm 2 mps 762 mmHg 84%
07:00 +5°C° 0 mm 2 mps 762 mmHg 84%
08:00 +6°C° 0 mm 2 mps 762 mmHg 77%
09:00 +8°C° 0 mm 2 mps 762 mmHg 70%
10:00 +10°C° 0 mm 3 mps 762 mmHg 62%
11:00 +12°C° 0 mm 2 mps 762 mmHg 58%
12:00 +12°C° 0 mm 2 mps 762 mmHg 53%
13:00 +13°C° 0 mm 2 mps 761 mmHg 49%
14:00 +13°C° 0 mm 2 mps 761 mmHg 51%
15:00 +12°C° 0 mm 2 mps 761 mmHg 53%
16:00 +12°C° 0 mm 1 mps 761 mmHg 55%
17:00 +11°C° 0 mm 1 mps 761 mmHg 57%
18:00 +9°C° 0 mm 2 mps 761 mmHg 60%
19:00 +8°C° 0 mm 2 mps 761 mmHg 63%
20:00 +8°C° 0 mm 2 mps 761 mmHg 64%
21:00 +8°C° 0 mm 2 mps 761 mmHg 65%
22:00 +8°C° 0 mm 1 mps 761 mmHg 66%
23:00 +8°C° 0 mm 1 mps 761 mmHg 67%
Show more